Regional Weather Roundup
Issued by NWS

Home | Current Version | Previous Version | Graphics & Text | Print | Product List | Glossary Off
Versions: 1 2 3 4 5 6 7 8 9 10 11 12 13 14 15 16 17 18 19 20 21 22 23 24 25 26 27 28 29 30 31 32 33 34 35 36 37 38 39 40 41 42 43 44 45 46 47 48 49 50

000
ASUS43 KMKX 030321
RWRWI

WISCONSIN REGIONAL WEATHER ROUNDUP
NATIONAL WEATHER SERVICE MILWAUKEE/SULLIVAN WI
1000 PM CDT THU JUL 02 2015

NOTE: "FAIR" INDICATES FEW OR NO CLOUDS BELOW 12,000 FEET WITH NO
SIGNIFICANT WEATHER AND/OR OBSTRUCTIONS TO VISIBILITY.

WIZ001-002-006>008-014>016-023>028-030400-
NORTHWEST WISCONSIN

CITY           SKY/WX    TMP DP  RH WIND       PRES   REMARKS
SUPERIOR ARPT  CLEAR     63  57  81 SW5       29.95R
ASHLAND        CLEAR     63  55  75 SW7       29.96R
HAYWARD        CLEAR     60  55  83 CALM      29.99R
SIREN          CLEAR     62  56  81 CALM      29.98R
CUMBERLAND     CLEAR     61  59  94 S3        30.00R
RICE LAKE      CLEAR     64  57  80 CALM      30.01R
CHETEK         CLEAR     62  58  88 CALM      29.99S
LADYSMITH      CLEAR     60  56  88 CALM      30.02R
EAU CLAIRE     CLEAR     63  57  81 CALM      29.99R
MENOMONIE      CLEAR     65  55  69 S6        29.99S
NEW RICHMOND   CLEAR     62  54  74 CALM      29.99S
OSCEOLA        CLEAR     64  57  76 S3        30.01R
$$

WIZ003>005-009-010-017-018-030400-
NORTH CENTRAL WISCONSIN

CITY           SKY/WX    TMP DP  RH WIND       PRES   REMARKS
MANITOWISH WTR CLEAR     61  55  82 CALM      30.00R
ARBOR VITAE    CLEAR     62  55  77 CALM      30.01R
WOODRUFF       CLEAR     62  55  77 CALM      30.01R
RHINELANDER    CLEAR     62  51  67 SW5       30.02R
EAGLE RIVER    PTCLDY    63  52  67 SW3       30.00S
LAND O LAKES   CLEAR     63  55  75 SW3       30.01S
PHILLIPS       CLEAR     61  55  82 CALM      30.00S
TOMAHAWK       CLEAR     57  52  85 CALM      30.02R
MEDFORD        CLEAR     53  51  93 S3        30.02R
MERRILL        CLEAR     61  53  76 CALM      30.02R
$$

WIZ029-030-035-036-043>047-030400-
CENTRAL WISCONSIN

CITY           SKY/WX    TMP DP  RH WIND       PRES   REMARKS
WAUSAU         CLEAR     64  52  64 S6        30.00R
MOSINEE        CLEAR     61  54  77 S3        30.02S
MARSHFIELD     CLEAR     62  51  67 CALM      30.02R
STEVENS POINT  CLEAR     58  52  79 CALM      30.02S
WAUPACA        CLEAR     58  53  82 CALM      30.02R
WAUTOMA        CLEAR     58  54  86 CALM      30.02R
WISC RAPIDS    CLEAR     58  52  80 CALM      30.03R
CAMP DOUGLAS   CLEAR     54  54 100 CALM      30.01R
$$

WIZ011>013-019>022-031-037>040-048>050-030400-
NORTHEAST WISCONSIN

CITY           SKY/WX    TMP DP  RH WIND       PRES   REMARKS
ANTIGO         CLEAR     57  52  84 CALM      30.03R
SHAWANO        CLEAR     61  52  72 S3        30.01S
OCONTO         CLEAR     54  54 100 CALM      30.00F
STURGEON BAY   CLEAR     55  45  67 CALM      30.03F
GREEN BAY      CLEAR     59  54  83 CALM      30.01S
MANITOWOC      CLEAR     56  50  80 MISG      30.02S
APPLETON       PTCLDY    66  45  45 VRB3      30.02R
CLINTONVILLE   CLEAR     59  48  67 CALM      30.01S
OSHKOSH        CLEAR     61  49  64 CALM      30.01R
$$

WIZ032>034-041-042-053>061-030400-
SOUTHWEST WISCONSIN

CITY           SKY/WX    TMP DP  RH WIND       PRES   REMARKS
LA CROSSE      CLEAR     66  57  72 E6        29.99R
SPARTA         CLEAR     58  52  80 CALM      30.02R
VIROQUA        CLEAR     62  51  69 E3        30.02R
BOSCOBEL       MOCLDY    58  55  90 CALM      30.00R
PRAIRIE DU CHI MOCLDY    60  55  82 CALM      30.00R
PLATTEVILLE    CLOUDY    61  56  86 NE3       30.00S
$$

WIZ056-057-062-063-064-067-068-030400-
SOUTH CENTRAL WISCONSIN

CITY           SKY/WX    TMP DP  RH WIND       PRES   REMARKS
REEDSBURG      PTCLDY    58  53  83 CALM      30.00R
BARABOO/DELLS  PTCLDY    58  51  78 S3        30.01R
LONE ROCK      PTCLDY    59  54  83 CALM      30.01R
MINERAL POINT  MOCLDY    64  50  59 E3        30.01R
MADISON        MOCLDY    59  47  64 CALM      30.01R
MIDDLETON      MOCLDY    57  53  85 CALM      30.01S
WATERTOWN      PTCLDY    56  51  82 E5        30.01R
MONROE         MOCLDY    61  48  63 NE6       30.00R
JANESVILLE     MOCLDY    57  54  88 NE5       29.99S
$$

WIZ051-052-058>065-066-070>072-030400-
SOUTHEAST WISCONSIN

CITY           SKY/WX    TMP DP  RH WIND       PRES   REMARKS
MILWAUKEE      MOCLDY    56  46  69 N3        30.02R
WAUKESHA       PTCLDY    54  45  71 CALM      30.03S
MILWAUKEE/TIMM CLEAR     55  43  62 NE3       30.03R
RACINE         CLEAR     56  46  69 N5        30.03R
BURLINGTON     PTCLDY    54  47  80 CALM      30.02R
KENOSHA        PTCLDY    55  47  74 N3        30.02R
FOND DU LAC    CLEAR     58  49  72 S5        30.02R
SHEBOYGAN      CLEAR     54  47  77 CALM      30.02R
WEST BEND      CLEAR     54  46  76 CALM      30.03R
JUNEAU         CLEAR     59  49  70 E5        30.02S
$$

LSZ147-162-030400-
LAKE SUPERIOR

STATION/POSITION TIME  TEMP    WIND        PRES    WAVE
                       AIR SEA DIR/SP/G            HT/PER
                 (UTC) (F)     (DEG/KT/KT) (MB)    (FT/S)
W MID LAKE BUOY  0250   49 39  210/ 10/ 12 1012.9S   0
DEVILS ISLAND    0300   70     210/ 12/ 14 1013.3R
SAXON HARBOR     0200   66        CALM     1013.9R
$$

LMZ867-665-643>646-030400-
LAKE MICHIGAN

STATION/POSITION TIME  TEMP    WIND        PRES    WAVE
                       AIR SEA DIR/SP/G            HT/PER
                 (UTC) (F)     (DEG/KT/KT) (MB)    (FT/S)
CHAMBERS ISLAND  0200   60     140/  2/  4 1015.9F
N MID LAKE BUOY  0250   55 50  250/  4/  6 1016.2R   0
NORTHPORT PIER   0200   60     200/  4/  6 1015.9S
ALGOMA LAKESHORE 0240             CALM       N/A
KEWAUNEE LAKESHO 0200   59      CALM  /  1 1015.8F
SHEBOYGAN LAKESH 0300   59      20/  5/  6 1016.9R
PORT WASHINGTON  0240   60      10/  3/  5 1016.9R
ATWATER BUOY     0300   58     360/  6/  8 1017.8R
MILWAUKEE LAKESH 0300   59      10/  5/  7   N/A
KENOSHA   LAKESH 0300   59      20/ 11/ 12 1016.3R
$$

TC  - TEMPERATURE IN CELSIUS
VSB - VISIBILITY IN STATUTE MILES
WCI - WIND CHILL INDEX
HX  - HEAT INDEX




USA.gov is the U.S. government's official web portal to all federal, state and local government web resources and services.